Time,TemperatureF,DewpointF,PressureIn,WindDirection,WindDirectionDegrees,WindSpeedMPH,WindSpeedGustMPH,Humidity,HourlyPrecipIn,Conditions,Clouds,dailyrainin,SoftwareType,DateUTC
2013-01-08 00:00:00,37.0,26.3,29.78,East,92,0.0,3.0,65,0.00,,---,0.00,VWS V13.01,2013-01-08 07:00:00,
2013-01-08 00:06:00,36.9,26.2,29.78,North,355,0.0,0.0,65,0.00,,---,0.00,VWS V13.01,2013-01-08 07:06:00,
2013-01-08 00:11:00,36.6,26.3,29.78,North,355,0.0,0.0,66,0.00,,---,0.00,VWS V13.01,2013-01-08 07:11:00,
2013-01-08 00:16:00,36.5,26.2,29.79,NNW,342,0.0,0.0,66,0.00,,---,0.00,VWS V13.01,2013-01-08 07:16:00,
2013-01-08 00:21:00,36.2,26.7,29.79,NW,306,3.0,4.0,68,0.00,,---,0.00,VWS V13.01,2013-01-08 07:21:00,
2013-01-08 00:26:00,36.0,26.5,29.79,NW,306,0.0,0.0,68,0.00,,---,0.00,VWS V13.01,2013-01-08 07:26:00,
2013-01-08 00:31:00,35.9,26.4,29.80,NW,306,0.0,0.0,68,0.00,,---,0.00,VWS V13.01,2013-01-08 07:31:00,
2013-01-08 00:36:00,35.8,26.3,29.80,NNE,23,0.0,0.0,68,0.00,,---,0.00,VWS V13.01,2013-01-08 07:36:00,
2013-01-08 00:41:00,35.5,26.4,29.80,NNE,23,0.0,0.0,69,0.00,,---,0.00,VWS V13.01,2013-01-08 07:41:00,
2013-01-08 00:46:00,35.5,25.3,29.80,NNE,15,0.0,1.0,66,0.00,,---,0.00,VWS V13.01,2013-01-08 07:46:00,
2013-01-08 00:51:00,35.6,25.4,29.80,ENE,75,0.0,0.0,66,0.00,,---,0.00,VWS V13.01,2013-01-08 07:51:00,
2013-01-08 00:56:00,35.8,25.9,29.80,ENE,75,0.0,0.0,67,0.00,,---,0.00,VWS V13.01,2013-01-08 07:56:00,
2013-01-08 01:01:00,35.9,25.3,29.81,NNW,340,0.0,1.0,65,0.00,,---,0.00,VWS V13.01,2013-01-08 08:01:00,
2013-01-08 01:06:00,36.0,25.4,29.81,NE,51,0.0,0.0,65,0.00,,---,0.00,VWS V13.01,2013-01-08 08:06:00,
2013-01-08 01:12:00,36.5,23.5,29.81,West,274,1.0,2.0,59,0.00,,---,0.00,VWS V13.01,2013-01-08 08:12:00,
2013-01-08 01:17:00,36.9,24.7,29.82,West,275,0.0,0.0,61,0.00,,---,0.00,VWS V13.01,2013-01-08 08:17:00,
2013-01-08 01:22:00,36.8,25.8,29.82,West,275,0.0,0.0,64,0.00,,---,0.00,VWS V13.01,2013-01-08 08:22:00,
2013-01-08 01:27:00,36.8,23.4,29.82,NNW,342,7.0,7.0,58,0.00,,---,0.00,VWS V13.01,2013-01-08 08:27:00,
2013-01-08 01:32:00,36.9,22.7,29.82,West,267,0.0,3.0,56,0.00,,---,0.00,VWS V13.01,2013-01-08 08:32:00,
2013-01-08 01:37:00,37.0,23.6,29.82,NE,40,2.0,3.0,58,0.00,,---,0.00,VWS V13.01,2013-01-08 08:37:00,
2013-01-08 01:42:00,37.0,24.0,29.82,East,90,0.0,1.0,59,0.00,,---,0.00,VWS V13.01,2013-01-08 08:42:00,
2013-01-08 01:47:00,36.9,23.5,29.83,East,90,0.0,0.0,58,0.00,,---,0.00,VWS V13.01,2013-01-08 08:47:00,
2013-01-08 01:52:00,36.9,23.1,29.83,East,90,0.0,0.0,57,0.00,,---,0.00,VWS V13.01,2013-01-08 08:52:00,
2013-01-08 01:57:00,36.6,24.0,29.83,East,90,1.0,2.0,60,0.00,,---,0.00,VWS V13.01,2013-01-08 08:57:00,
2013-01-08 02:02:00,36.5,22.7,29.84,WNW,286,0.0,1.0,57,0.00,,---,0.00,VWS V13.01,2013-01-08 09:02:00,
2013-01-08 02:07:00,36.5,23.5,29.84,NE,44,0.0,3.0,59,0.00,,---,0.00,VWS V13.01,2013-01-08 09:07:00,
2013-01-08 02:12:00,36.3,22.5,29.84,West,267,0.0,4.0,57,0.00,,---,0.00,VWS V13.01,2013-01-08 09:12:00,
2013-01-08 02:18:00,36.5,23.5,29.84,ENE,76,0.0,3.0,59,0.00,,---,0.00,VWS V13.01,2013-01-08 09:18:00,
2013-01-08 02:23:00,36.5,23.5,29.84,NE,49,2.0,5.0,59,0.00,,---,0.00,VWS V13.01,2013-01-08 09:23:00,
2013-01-08 02:28:00,36.3,23.8,29.84,ENE,74,3.0,7.0,60,0.00,,---,0.00,VWS V13.01,2013-01-08 09:28:00,
2013-01-08 02:33:00,36.3,23.8,29.85,NE,34,0.0,6.0,60,0.00,,---,0.00,VWS V13.01,2013-01-08 09:33:00,
2013-01-08 02:38:00,36.2,24.5,29.85,North,5,0.0,1.0,62,0.00,,---,0.00,VWS V13.01,2013-01-08 09:38:00,
2013-01-08 02:43:00,35.9,24.2,29.85,East,79,2.0,5.0,62,0.00,,---,0.00,VWS V13.01,2013-01-08 09:43:00,
2013-01-08 02:48:00,35.8,23.7,29.85,NNW,344,0.0,3.0,61,0.00,,---,0.00,VWS V13.01,2013-01-08 09:48:00,
2013-01-08 02:53:00,35.8,25.2,29.85,North,355,0.0,0.0,65,0.00,,---,0.00,VWS V13.01,2013-01-08 09:53:00,
2013-01-08 02:58:00,35.5,25.3,29.85,North,355,0.0,0.0,66,0.00,,---,0.00,VWS V13.01,2013-01-08 09:58:00,
2013-01-08 03:04:00,35.2,25.4,29.85,ESE,102,0.0,2.0,67,0.00,,---,0.00,VWS V13.01,2013-01-08 10:04:00,
2013-01-08 03:09:00,35.2,23.1,29.85,NW,320,0.0,3.0,61,0.00,,---,0.00,VWS V13.01,2013-01-08 10:09:00,
2013-01-08 03:14:00,35.3,25.5,29.85,NW,320,0.0,0.0,67,0.00,,---,0.00,VWS V13.01,2013-01-08 10:14:00,
2013-01-08 03:19:00,35.2,24.3,29.85,NE,42,0.0,6.0,64,0.00,,---,0.00,VWS V13.01,2013-01-08 10:19:00,
2013-01-08 03:24:00,35.2,23.1,29.85,South,174,0.0,5.0,61,0.00,,---,0.00,VWS V13.01,2013-01-08 10:24:00,
2013-01-08 03:29:00,35.5,22.6,29.84,NE,42,0.0,5.0,59,0.00,,---,0.00,VWS V13.01,2013-01-08 10:29:00,
2013-01-08 03:35:00,35.8,21.6,29.84,North,9,0.0,6.0,56,0.00,,---,0.00,VWS V13.01,2013-01-08 10:35:00,
2013-01-08 03:40:00,36.0,22.3,29.84,WNW,301,0.0,3.0,57,0.00,,---,0.00,VWS V13.01,2013-01-08 10:40:00,
2013-01-08 03:45:00,36.2,22.9,29.85,NE,55,0.0,5.0,58,0.00,,---,0.00,VWS V13.01,2013-01-08 10:45:00,
2013-01-08 03:50:00,36.2,22.0,29.85,NNE,30,0.0,4.0,56,0.00,,---,0.00,VWS V13.01,2013-01-08 10:50:00,
2013-01-08 03:55:00,36.0,22.7,29.85,NNE,26,0.0,3.0,58,0.00,,---,0.00,VWS V13.01,2013-01-08 10:55:00,
2013-01-08 04:00:00,35.9,23.0,29.85,SW,229,2.0,7.0,59,0.00,,---,0.00,VWS V13.01,2013-01-08 11:00:00,
2013-01-08 04:05:00,35.9,21.3,29.85,North,355,0.0,4.0,55,0.00,,---,0.00,VWS V13.01,2013-01-08 11:05:00,
2013-01-08 04:10:00,36.0,24.3,29.85,ENE,69,0.0,0.0,62,0.00,,---,0.00,VWS V13.01,2013-01-08 11:10:00,
2013-01-08 04:15:00,35.9,22.2,29.87,NW,326,4.0,4.0,57,0.00,,---,0.00,VWS V13.01,2013-01-08 11:15:00,
2013-01-08 04:20:00,35.8,22.5,29.87,NNE,15,0.0,0.0,58,0.00,,---,0.00,VWS V13.01,2013-01-08 11:20:00,
2013-01-08 04:25:00,35.8,22.5,29.87,NNE,15,0.0,0.0,58,0.00,,---,0.00,VWS V13.01,2013-01-08 11:25:00,
2013-01-08 04:31:00,35.6,23.1,29.87,NW,321,0.0,0.0,60,0.00,,---,0.00,VWS V13.01,2013-01-08 11:31:00,
2013-01-08 04:36:00,35.5,22.2,29.87,WSW,240,4.0,4.0,58,0.00,,---,0.00,VWS V13.01,2013-01-08 11:36:00,
2013-01-08 04:41:00,35.5,22.6,29.87,East,101,4.0,5.0,59,0.00,,---,0.00,VWS V13.01,2013-01-08 11:41:00,
2013-01-08 04:46:00,35.3,22.8,29.88,NNE,23,1.0,5.0,60,0.00,,---,0.00,VWS V13.01,2013-01-08 11:46:00,
2013-01-08 04:51:00,35.2,22.3,29.88,East,85,1.0,2.0,59,0.00,,---,0.00,VWS V13.01,2013-01-08 11:51:00,
2013-01-08 04:56:00,35.0,22.9,29.88,ESE,102,0.0,1.0,61,0.00,,---,0.00,VWS V13.01,2013-01-08 11:56:00,
2013-01-08 05:01:00,34.7,23.0,29.88,ESE,103,0.0,0.0,62,0.00,,---,0.00,VWS V13.01,2013-01-08 12:01:00,
2013-01-08 05:06:00,34.4,23.5,29.88,East,99,0.0,2.0,64,0.00,,---,0.00,VWS V13.01,2013-01-08 12:06:00,
2013-01-08 05:11:00,34.3,22.3,29.88,East,99,0.0,0.0,61,0.00,,---,0.00,VWS V13.01,2013-01-08 12:11:00,
2013-01-08 05:16:00,34.1,21.7,29.89,ESE,107,1.0,3.0,60,0.00,,---,0.00,VWS V13.01,2013-01-08 12:16:00,
2013-01-08 05:21:00,34.1,21.7,29.89,North,5,3.0,5.0,60,0.00,,---,0.00,VWS V13.01,2013-01-08 12:21:00,
2013-01-08 05:26:00,34.4,19.5,29.89,North,355,3.0,3.0,54,0.00,,---,0.00,VWS V13.01,2013-01-08 12:26:00,
2013-01-08 05:32:00,34.7,20.2,29.90,ESE,118,0.0,0.0,55,0.00,,---,0.00,VWS V13.01,2013-01-08 12:32:00,
2013-01-08 05:37:00,34.9,20.4,29.90,NE,51,0.0,0.0,55,0.00,,---,0.00,VWS V13.01,2013-01-08 12:37:00,
2013-01-08 05:42:00,35.0,20.5,29.90,WSW,250,0.0,2.0,55,0.00,,---,0.00,VWS V13.01,2013-01-08 12:42:00,
2013-01-08 05:47:00,35.0,20.5,29.91,NNE,14,0.0,1.0,55,0.00,,---,0.00,VWS V13.01,2013-01-08 12:47:00,
2013-01-08 05:52:00,34.9,21.6,29.91,WSW,237,1.0,1.0,58,0.00,,---,0.00,VWS V13.01,2013-01-08 12:52:00,
2013-01-08 05:57:00,34.9,22.0,29.91,WSW,237,0.0,0.0,59,0.00,,---,0.00,VWS V13.01,2013-01-08 12:57:00,
2013-01-08 06:02:00,34.6,20.5,29.92,NNE,15,0.0,1.0,56,0.00,,---,0.00,VWS V13.01,2013-01-08 13:02:00,
2013-01-08 06:07:00,34.6,21.8,29.92,ENE,73,4.0,4.0,59,0.00,,---,0.00,VWS V13.01,2013-01-08 13:07:00,
2013-01-08 06:12:00,34.4,18.6,29.92,North,5,0.0,3.0,52,0.00,,---,0.00,VWS V13.01,2013-01-08 13:12:00,
2013-01-08 06:17:00,34.6,18.8,29.93,WNW,297,2.0,6.0,52,0.00,,---,0.00,VWS V13.01,2013-01-08 13:17:00,
2013-01-08 06:22:00,34.7,18.4,29.93,NNW,345,0.0,0.0,51,0.00,,---,0.00,VWS V13.01,2013-01-08 13:22:00,
2013-01-08 06:27:00,34.9,20.0,29.93,North,10,0.0,3.0,54,0.00,,---,0.00,VWS V13.01,2013-01-08 13:27:00,
2013-01-08 06:33:00,34.9,20.8,29.93,ENE,59,0.0,2.0,56,0.00,,---,0.00,VWS V13.01,2013-01-08 13:33:00,
2013-01-08 06:38:00,34.9,20.8,29.93,ENE,71,0.0,1.0,56,0.00,,---,0.00,VWS V13.01,2013-01-08 13:38:00,
2013-01-08 06:43:00,34.7,20.2,29.93,West,271,3.0,3.0,55,0.00,,---,0.00,VWS V13.01,2013-01-08 13:43:00,
2013-01-08 06:48:00,34.7,17.5,29.94,NW,313,0.0,6.0,49,0.00,,---,0.00,VWS V13.01,2013-01-08 13:48:00,
2013-01-08 06:53:00,34.9,17.7,29.94,SE,141,0.0,1.0,49,0.00,,---,0.00,VWS V13.01,2013-01-08 13:53:00,
2013-01-08 06:58:00,35.2,17.5,29.94,East,98,0.0,14.0,48,0.00,,---,0.00,VWS V13.01,2013-01-08 13:58:00,
2013-01-08 07:03:00,35.2,18.4,29.94,NNE,30,2.0,4.0,50,0.00,,---,0.00,VWS V13.01,2013-01-08 14:03:00,
2013-01-08 07:08:00,35.2,17.5,29.94,North,350,0.0,4.0,48,0.00,,---,0.00,VWS V13.01,2013-01-08 14:08:00,
2013-01-08 07:13:00,35.0,18.2,29.94,NNW,331,0.0,2.0,50,0.00,,---,0.00,VWS V13.01,2013-01-08 14:13:00,
2013-01-08 07:18:00,35.0,17.3,29.93,NNW,339,0.0,10.0,48,0.00,,---,0.00,VWS V13.01,2013-01-08 14:18:00,
2013-01-08 07:24:00,35.0,18.2,29.93,NNW,327,0.0,4.0,50,0.00,,---,0.00,VWS V13.01,2013-01-08 14:24:00,
2013-01-08 07:29:00,35.0,17.3,29.93,NNE,28,4.0,6.0,48,0.00,,---,0.00,VWS V13.01,2013-01-08 14:29:00,
2013-01-08 07:34:00,34.7,17.5,29.93,NE,39,0.0,4.0,49,0.00,,---,0.00,VWS V13.01,2013-01-08 14:34:00,
2013-01-08 07:39:00,34.6,17.4,29.93,ENE,65,0.0,2.0,49,0.00,,---,0.00,VWS V13.01,2013-01-08 14:39:00,
2013-01-08 07:44:00,34.4,17.2,29.93,SW,232,0.0,6.0,49,0.00,,---,0.00,VWS V13.01,2013-01-08 14:44:00,
2013-01-08 07:49:00,34.3,17.1,29.94,North,355,2.0,6.0,49,0.00,,---,0.00,VWS V13.01,2013-01-08 14:49:00,
2013-01-08 07:54:00,34.1,17.0,29.94,NNW,331,0.0,4.0,49,0.00,,---,0.00,VWS V13.01,2013-01-08 14:54:00,
2013-01-08 07:59:00,34.1,17.9,29.94,NE,40,3.0,3.0,51,0.00,,---,0.00,VWS V13.01,2013-01-08 14:59:00,
2013-01-08 08:04:00,34.0,15.9,29.94,East,81,2.0,6.0,47,0.00,,---,0.00,VWS V13.01,2013-01-08 15:04:00,
2013-01-08 08:09:00,34.0,16.9,29.94,NE,37,0.0,9.0,49,0.00,,---,0.00,VWS V13.01,2013-01-08 15:09:00,
2013-01-08 08:15:00,33.8,16.7,29.95,NE,34,4.0,5.0,49,0.00,,---,0.00,VWS V13.01,2013-01-08 15:15:00,
2013-01-08 08:20:00,33.7,17.5,29.95,NNW,341,1.0,10.0,51,0.00,,---,0.00,VWS V13.01,2013-01-08 15:20:00,
2013-01-08 08:25:00,33.7,17.0,29.95,SSW,193,6.0,12.0,50,0.00,,---,0.00,VWS V13.01,2013-01-08 15:25:00,
2013-01-08 08:30:00,33.7,16.6,29.95,NW,315,0.0,6.0,49,0.00,,---,0.00,VWS V13.01,2013-01-08 15:30:00,
2013-01-08 08:35:00,33.7,16.6,29.95,NNE,28,0.0,4.0,49,0.00,,---,0.00,VWS V13.01,2013-01-08 15:35:00,
2013-01-08 08:40:00,33.8,16.7,29.95,ESE,117,0.0,5.0,49,0.00,,---,0.00,VWS V13.01,2013-01-08 15:40:00,
2013-01-08 08:45:00,33.7,16.6,29.97,NNE,31,1.0,4.0,49,0.00,,---,0.00,VWS V13.01,2013-01-08 15:45:00,
2013-01-08 08:50:00,33.5,15.9,29.97,NW,321,4.0,5.0,48,0.00,,---,0.00,VWS V13.01,2013-01-08 15:50:00,
2013-01-08 08:55:00,33.7,14.6,29.97,WSW,238,0.0,21.0,45,0.00,,---,0.00,VWS V13.01,2013-01-08 15:55:00,
2013-01-08 09:00:00,34.0,17.3,30.00,East,86,2.0,3.0,50,0.00,,---,0.00,VWS V13.01,2013-01-08 16:00:00,
2013-01-08 09:06:00,34.0,17.3,30.00,ENE,63,0.0,2.0,50,0.00,,---,0.00,VWS V13.01,2013-01-08 16:06:00,
2013-01-08 09:11:00,33.8,15.2,30.00,South,171,0.0,0.0,46,0.00,,---,0.00,VWS V13.01,2013-01-08 16:11:00,
2013-01-08 09:16:00,33.7,16.6,30.02,East,94,0.0,5.0,49,0.00,,---,0.00,VWS V13.01,2013-01-08 16:16:00,
2013-01-08 09:21:00,33.7,17.0,30.02,NE,49,0.0,3.0,50,0.00,,---,0.00,VWS V13.01,2013-01-08 16:21:00,
2013-01-08 09:26:00,33.5,15.4,30.02,North,9,0.0,4.0,47,0.00,,---,0.00,VWS V13.01,2013-01-08 16:26:00,
2013-01-08 09:31:00,33.5,17.3,30.02,ENE,76,0.0,3.0,51,0.00,,---,0.00,VWS V13.01,2013-01-08 16:31:00,
2013-01-08 09:37:00,33.7,16.1,30.02,NW,319,0.0,5.0,48,0.00,,---,0.00,VWS V13.01,2013-01-08 16:37:00,
2013-01-08 09:42:00,33.8,16.2,30.02,East,98,3.0,3.0,48,0.00,,---,0.00,VWS V13.01,2013-01-08 16:42:00,
2013-01-08 09:47:00,34.0,15.4,30.03,NNE,30,2.0,3.0,46,0.00,,---,0.00,VWS V13.01,2013-01-08 16:47:00,
2013-01-08 09:52:00,34.1,16.5,30.03,WSW,248,1.0,4.0,48,0.00,,---,0.00,VWS V13.01,2013-01-08 16:52:00,
2013-01-08 09:57:00,34.1,17.0,30.03,North,355,0.0,1.0,49,0.00,,---,0.00,VWS V13.01,2013-01-08 16:57:00,
2013-01-08 10:02:00,34.1,16.5,30.04,North,11,2.0,3.0,48,0.00,,---,0.00,VWS V13.01,2013-01-08 17:02:00,
2013-01-08 10:08:00,34.1,15.5,30.04,ENE,71,1.0,4.0,46,0.00,,---,0.00,VWS V13.01,2013-01-08 17:08:00,
2013-01-08 10:13:00,34.1,16.0,30.04,ENE,62,0.0,2.0,47,0.00,,---,0.00,VWS V13.01,2013-01-08 17:13:00,
2013-01-08 10:18:00,34.1,16.5,30.04,NNW,348,0.0,3.0,48,0.00,,---,0.00,VWS V13.01,2013-01-08 17:18:00,
2013-01-08 10:23:00,34.1,17.0,30.04,ENE,73,1.0,4.0,49,0.00,,---,0.00,VWS V13.01,2013-01-08 17:23:00,
2013-01-08 10:28:00,34.0,16.9,30.04,NE,55,3.0,6.0,49,0.00,,---,0.00,VWS V13.01,2013-01-08 17:28:00,
2013-01-08 10:34:00,33.8,16.2,30.04,ENE,75,1.0,4.0,48,0.00,,---,0.00,VWS V13.01,2013-01-08 17:34:00,
2013-01-08 10:39:00,33.8,16.7,30.04,ENE,77,0.0,5.0,49,0.00,,---,0.00,VWS V13.01,2013-01-08 17:39:00,
2013-01-08 10:44:00,33.8,16.2,30.04,North,351,2.0,5.0,48,0.00,,---,0.00,VWS V13.01,2013-01-08 17:44:00,
2013-01-08 10:49:00,33.8,14.2,30.04,East,94,0.0,5.0,44,0.00,,---,0.00,VWS V13.01,2013-01-08 17:49:00,
2013-01-08 10:54:00,34.0,17.3,30.04,ENE,60,1.0,5.0,50,0.00,,---,0.00,VWS V13.01,2013-01-08 17:54:00,
2013-01-08 10:59:00,34.0,17.3,30.05,ENE,74,0.0,5.0,50,0.00,,---,0.00,VWS V13.01,2013-01-08 17:59:00,
2013-01-08 11:04:00,33.8,17.1,30.05,North,360,3.0,4.0,50,0.00,,---,0.00,VWS V13.01,2013-01-08 18:04:00,
2013-01-08 11:10:00,33.8,15.7,30.05,ENE,66,0.0,4.0,47,0.00,,---,0.00,VWS V13.01,2013-01-08 18:10:00,
2013-01-08 11:15:00,34.0,16.9,30.06,ENE,59,2.0,5.0,49,0.00,,---,0.00,VWS V13.01,2013-01-08 18:15:00,
2013-01-08 11:20:00,34.1,16.0,30.06,ESE,103,0.0,9.0,47,0.00,,---,0.00,VWS V13.01,2013-01-08 18:20:00,
2013-01-08 11:25:00,34.1,15.5,30.06,East,98,0.0,8.0,46,0.00,,---,0.00,VWS V13.01,2013-01-08 18:25:00,
2013-01-08 11:30:00,34.3,16.7,30.06,NE,46,0.0,4.0,48,0.00,,---,0.00,VWS V13.01,2013-01-08 18:30:00,
2013-01-08 11:35:00,34.4,16.3,30.06,NNE,30,2.0,4.0,47,0.00,,---,0.00,VWS V13.01,2013-01-08 18:35:00,
2013-01-08 11:40:00,34.6,16.5,30.06,NW,304,0.0,2.0,47,0.00,,---,0.00,VWS V13.01,2013-01-08 18:40:00,
2013-01-08 11:45:00,34.7,15.0,30.05,NW,311,0.0,4.0,44,0.00,,---,0.00,VWS V13.01,2013-01-08 18:45:00,
2013-01-08 11:50:00,34.9,16.7,30.05,NE,55,3.0,6.0,47,0.00,,---,0.00,VWS V13.01,2013-01-08 18:50:00,
2013-01-08 11:55:00,35.0,16.3,30.05,West,261,0.0,9.0,46,0.00,,---,0.00,VWS V13.01,2013-01-08 18:55:00,
2013-01-08 12:00:00,35.2,15.0,30.05,NNW,340,1.0,10.0,43,0.00,,---,0.00,VWS V13.01,2013-01-08 19:00:00,
2013-01-08 12:05:00,35.3,15.6,30.05,North,11,0.0,9.0,44,0.00,,---,0.00,VWS V13.01,2013-01-08 19:05:00,
2013-01-08 12:10:00,35.5,17.3,30.05,NNE,30,1.0,5.0,47,0.00,,---,0.00,VWS V13.01,2013-01-08 19:10:00,
2013-01-08 12:15:00,35.5,14.1,30.05,NW,315,2.0,2.0,41,0.00,,---,0.00,VWS V13.01,2013-01-08 19:15:00,
2013-01-08 12:20:00,35.6,15.9,30.05,ENE,64,1.0,1.0,44,0.00,,---,0.00,VWS V13.01,2013-01-08 19:20:00,
2013-01-08 12:26:00,35.8,15.5,30.05,ENE,76,1.0,1.0,43,0.00,,---,0.00,VWS V13.01,2013-01-08 19:26:00,
2013-01-08 12:31:00,35.9,15.6,30.04,NNE,20,0.0,2.0,43,0.00,,---,0.00,VWS V13.01,2013-01-08 19:31:00,
2013-01-08 12:36:00,36.0,15.7,30.04,ENE,73,0.0,1.0,43,0.00,,---,0.00,VWS V13.01,2013-01-08 19:36:00,
2013-01-08 12:41:00,36.0,18.2,30.04,NNE,17,0.0,0.0,48,0.00,,---,0.00,VWS V13.01,2013-01-08 19:41:00,
2013-01-08 12:46:00,36.2,17.4,30.04,NNE,25,2.0,2.0,46,0.00,,---,0.00,VWS V13.01,2013-01-08 19:46:00,
2013-01-08 12:51:00,36.2,17.9,30.04,NE,48,0.0,2.0,47,0.00,,---,0.00,VWS V13.01,2013-01-08 19:51:00,
2013-01-08 12:56:00,36.2,19.4,30.04,North,9,0.0,5.0,50,0.00,,---,0.00,VWS V13.01,2013-01-08 19:56:00,
2013-01-08 13:01:00,36.2,15.9,30.05,WNW,292,0.0,3.0,43,0.00,,---,0.00,VWS V13.01,2013-01-08 20:01:00,
2013-01-08 13:06:00,36.5,13.3,30.05,ENE,59,1.0,3.0,38,0.00,,---,0.00,VWS V13.01,2013-01-08 20:06:00,
2013-01-08 13:11:00,36.5,14.5,30.05,NNW,340,1.0,2.0,40,0.00,,---,0.00,VWS V13.01,2013-01-08 20:11:00,
2013-01-08 13:16:00,36.6,15.1,30.03,NE,38,0.0,0.0,41,0.00,,---,0.00,VWS V13.01,2013-01-08 20:16:00,
2013-01-08 13:21:00,36.6,16.8,30.03,NNE,22,0.0,1.0,44,0.00,,---,0.00,VWS V13.01,2013-01-08 20:21:00,
2013-01-08 13:26:00,36.6,18.3,30.03,NNE,17,0.0,4.0,47,0.00,,---,0.00,VWS V13.01,2013-01-08 20:26:00,
2013-01-08 13:31:00,36.6,14.0,30.03,East,94,2.0,5.0,39,0.00,,---,0.00,VWS V13.01,2013-01-08 20:31:00,
2013-01-08 13:36:00,36.8,16.4,30.03,East,91,2.0,5.0,43,0.00,,---,0.00,VWS V13.01,2013-01-08 20:36:00,
2013-01-08 13:42:00,36.8,17.0,30.03,WNW,290,0.0,2.0,44,0.00,,---,0.00,VWS V13.01,2013-01-08 20:42:00,
2013-01-08 13:47:00,36.9,17.0,30.03,NNE,26,0.0,0.0,44,0.00,,---,0.00,VWS V13.01,2013-01-08 20:47:00,
2013-01-08 13:52:00,36.9,18.6,30.03,NNE,27,0.0,0.0,47,0.00,,---,0.00,VWS V13.01,2013-01-08 20:52:00,
2013-01-08 13:57:00,36.9,15.4,30.03,ENE,78,0.0,2.0,41,0.00,,---,0.00,VWS V13.01,2013-01-08 20:57:00,
2013-01-08 14:02:00,36.9,16.5,30.02,NNW,340,0.0,2.0,43,0.00,,---,0.00,VWS V13.01,2013-01-08 21:02:00,
2013-01-08 14:07:00,36.9,13.1,30.02,NNW,340,0.0,0.0,37,0.00,,---,0.00,VWS V13.01,2013-01-08 21:07:00,
2013-01-08 14:13:00,36.9,19.1,30.02,NNW,340,0.0,0.0,48,0.00,,---,0.00,VWS V13.01,2013-01-08 21:13:00,
2013-01-08 14:18:00,36.8,20.4,30.03,NNW,340,0.0,0.0,51,0.00,,---,0.00,VWS V13.01,2013-01-08 21:18:00,
2013-01-08 14:23:00,36.6,16.2,30.03,NNW,340,0.0,0.0,43,0.00,,---,0.00,VWS V13.01,2013-01-08 21:23:00,
2013-01-08 14:28:00,36.3,21.3,30.03,NNW,340,0.0,0.0,54,0.00,,---,0.00,VWS V13.01,2013-01-08 21:28:00,
2013-01-08 14:34:00,36.2,21.6,30.04,NNW,340,0.0,0.0,55,0.00,,---,0.00,VWS V13.01,2013-01-08 21:34:00,
2013-01-08 14:39:00,36.0,20.5,30.04,NNW,340,0.0,0.0,53,0.00,,---,0.00,VWS V13.01,2013-01-08 21:39:00,
2013-01-08 14:44:00,35.9,21.8,30.04,NNW,340,0.0,0.0,56,0.00,,---,0.00,VWS V13.01,2013-01-08 21:44:00,
2013-01-08 14:49:00,35.9,23.0,30.04,NNW,340,0.0,0.0,59,0.00,,---,0.00,VWS V13.01,2013-01-08 21:49:00,
2013-01-08 14:54:00,35.8,21.2,30.04,NNW,340,0.0,0.0,55,0.00,,---,0.00,VWS V13.01,2013-01-08 21:54:00,
2013-01-08 14:59:00,35.8,20.8,30.05,NNW,340,0.0,0.0,54,0.01,,---,0.01,VWS V13.01,2013-01-08 21:59:00,
2013-01-08 15:05:00,35.8,22.5,30.05,NNW,340,0.0,0.0,58,0.01,,---,0.01,VWS V13.01,2013-01-08 22:05:00,
2013-01-08 15:10:00,35.6,22.7,30.05,NNW,340,0.0,0.0,59,0.01,,---,0.01,VWS V13.01,2013-01-08 22:10:00,
2013-01-08 15:15:00,35.6,21.9,30.03,NNW,340,0.0,0.0,57,0.01,,---,0.01,VWS V13.01,2013-01-08 22:15:00,
2013-01-08 15:20:00,35.6,22.3,30.03,NNW,340,0.0,0.0,58,0.01,,---,0.01,VWS V13.01,2013-01-08 22:20:00,
2013-01-08 15:25:00,35.8,22.9,30.03,NNW,340,0.0,0.0,59,0.01,,---,0.01,VWS V13.01,2013-01-08 22:25:00,
2013-01-08 15:30:00,35.8,21.2,30.03,East,86,1.0,4.0,55,0.01,,---,0.01,VWS V13.01,2013-01-08 22:30:00,
2013-01-08 15:35:00,35.9,21.3,30.03,East,86,0.0,1.0,55,0.01,,---,0.01,VWS V13.01,2013-01-08 22:35:00,
2013-01-08 15:40:00,36.0,19.6,30.03,NNE,28,3.0,3.0,51,0.01,,---,0.01,VWS V13.01,2013-01-08 22:40:00,
2013-01-08 15:45:00,36.0,18.7,30.04,North,5,0.0,3.0,49,0.01,,---,0.01,VWS V13.01,2013-01-08 22:45:00,
2013-01-08 15:50:00,36.2,20.7,30.04,ENE,57,1.0,3.0,53,0.01,,---,0.01,VWS V13.01,2013-01-08 22:50:00,
2013-01-08 15:55:00,36.3,20.8,30.04,NNW,347,2.0,3.0,53,0.01,,---,0.01,VWS V13.01,2013-01-08 22:55:00,
2013-01-08 16:00:00,36.3,20.8,30.03,NNE,33,0.0,2.0,53,0.01,,---,0.01,VWS V13.01,2013-01-08 23:00:00,
2013-01-08 16:05:00,36.3,23.4,30.03,NNE,28,0.0,1.0,59,0.00,,---,0.01,VWS V13.01,2013-01-08 23:05:00,
2013-01-08 16:10:00,36.2,22.5,30.03,NNE,28,0.0,0.0,57,0.00,,---,0.01,VWS V13.01,2013-01-08 23:10:00,
2013-01-08 16:15:00,36.0,23.9,30.04,NNE,28,0.0,0.0,61,0.00,,---,0.01,VWS V13.01,2013-01-08 23:15:00,
2013-01-08 16:20:00,35.8,22.5,30.04,NNE,28,0.0,1.0,58,0.00,,---,0.01,VWS V13.01,2013-01-08 23:20:00,
2013-01-08 16:25:00,35.5,23.0,30.04,NNE,30,0.0,1.0,60,0.00,,---,0.01,VWS V13.01,2013-01-08 23:25:00,
2013-01-08 16:30:00,35.3,22.4,30.03,NNE,30,0.0,0.0,59,0.00,,---,0.01,VWS V13.01,2013-01-08 23:30:00,
2013-01-08 16:36:00,35.0,23.3,30.03,NNE,30,0.0,0.0,62,0.00,,---,0.01,VWS V13.01,2013-01-08 23:36:00,
2013-01-08 16:41:00,34.7,22.6,30.03,NNE,30,0.0,0.0,61,0.00,,---,0.01,VWS V13.01,2013-01-08 23:41:00,
2013-01-08 16:46:00,34.3,22.3,30.04,NNE,30,0.0,0.0,61,0.00,,---,0.01,VWS V13.01,2013-01-08 23:46:00,
2013-01-08 16:51:00,34.0,22.7,30.04,NNE,30,0.0,0.0,63,0.00,,---,0.01,VWS V13.01,2013-01-08 23:51:00,
2013-01-08 16:56:00,33.7,21.7,30.04,NNE,30,0.0,0.0,61,0.00,,---,0.01,VWS V13.01,2013-01-08 23:56:00,
2013-01-08 17:02:00,33.5,22.3,30.04,NNE,30,0.0,0.0,63,0.00,,---,0.01,VWS V13.01,2013-01-09 00:02:00,
2013-01-08 17:07:00,33.4,23.3,30.04,NNE,30,0.0,0.0,66,0.00,,---,0.01,VWS V13.01,2013-01-09 00:07:00,
2013-01-08 17:12:00,33.2,23.1,30.04,NNE,30,0.0,0.0,66,0.00,,---,0.01,VWS V13.01,2013-01-09 00:12:00,
2013-01-08 17:17:00,33.2,23.5,30.03,NNE,30,0.0,0.0,67,0.00,,---,0.01,VWS V13.01,2013-01-09 00:17:00,
2013-01-08 17:22:00,33.1,22.6,30.03,NNE,30,0.0,0.0,65,0.00,,---,0.01,VWS V13.01,2013-01-09 00:22:00,
2013-01-08 17:27:00,33.1,23.0,30.03,NNE,30,0.0,0.0,66,0.00,,---,0.01,VWS V13.01,2013-01-09 00:27:00,
2013-01-08 17:32:00,33.1,23.0,30.02,NNE,30,0.0,0.0,66,0.00,,---,0.01,VWS V13.01,2013-01-09 00:32:00,
2013-01-08 17:38:00,33.1,23.7,30.02,NNE,30,0.0,0.0,68,0.00,,---,0.01,VWS V13.01,2013-01-09 00:38:00,
2013-01-08 17:43:00,32.9,23.2,30.02,NNE,30,0.0,0.0,67,0.00,,---,0.01,VWS V13.01,2013-01-09 00:43:00,
2013-01-08 17:48:00,32.8,22.3,30.03,NNE,30,0.0,0.0,65,0.00,,---,0.01,VWS V13.01,2013-01-09 00:48:00,
2013-01-08 17:53:00,32.8,23.4,30.03,NNE,30,0.0,0.0,68,0.00,,---,0.01,VWS V13.01,2013-01-09 00:53:00,
2013-01-08 17:58:00,32.7,22.6,30.03,NNE,30,0.0,0.0,66,0.00,,---,0.01,VWS V13.01,2013-01-09 00:58:00,
2013-01-08 18:03:00,32.7,22.2,30.03,NNE,30,0.0,0.0,65,0.00,,---,0.01,VWS V13.01,2013-01-09 01:03:00,
2013-01-08 18:08:00,32.7,23.3,30.03,NNE,30,0.0,0.0,68,0.00,,---,0.01,VWS V13.01,2013-01-09 01:08:00,
2013-01-08 18:13:00,32.8,23.4,30.03,NNE,30,0.0,0.0,68,0.00,,---,0.01,VWS V13.01,2013-01-09 01:13:00,
2013-01-08 18:18:00,32.8,23.4,30.02,NNE,30,0.0,0.0,68,0.00,,---,0.01,VWS V13.01,2013-01-09 01:18:00,
2013-01-08 18:24:00,32.7,23.7,30.02,NNE,30,0.0,0.0,69,0.00,,---,0.01,VWS V13.01,2013-01-09 01:24:00,
2013-01-08 18:29:00,32.5,23.1,30.02,NNE,30,0.0,0.0,68,0.00,,---,0.01,VWS V13.01,2013-01-09 01:29:00,
2013-01-08 18:34:00,32.4,23.0,30.02,NNE,30,0.0,0.0,68,0.00,,---,0.01,VWS V13.01,2013-01-09 01:34:00,
2013-01-08 18:39:00,32.1,23.1,30.02,NNE,30,0.0,0.0,69,0.00,,---,0.01,VWS V13.01,2013-01-09 01:39:00,
2013-01-08 18:44:00,31.6,22.6,30.02,NNE,30,0.0,0.0,69,0.00,,---,0.01,VWS V13.01,2013-01-09 01:44:00,
2013-01-08 18:49:00,31.3,22.0,30.03,NNE,30,0.0,0.0,68,0.00,,---,0.01,VWS V13.01,2013-01-09 01:49:00,
2013-01-08 18:54:00,30.9,21.6,30.03,NNE,30,0.0,0.0,68,0.00,,---,0.01,VWS V13.01,2013-01-09 01:54:00,
2013-01-08 18:59:00,30.3,21.0,30.04,NNE,30,0.0,0.0,68,0.00,,---,0.01,VWS V13.01,2013-01-09 01:59:00,
2013-01-08 19:04:00,29.8,20.5,30.04,NNE,30,0.0,0.0,68,0.00,,---,0.01,VWS V13.01,2013-01-09 02:04:00,
2013-01-08 19:10:00,29.5,20.9,30.04,NNE,30,0.0,0.0,70,0.00,,---,0.01,VWS V13.01,2013-01-09 02:10:00,
2013-01-08 19:15:00,29.3,21.1,30.06,NNE,30,0.0,0.0,71,0.00,,---,0.01,VWS V13.01,2013-01-09 02:15:00,
2013-01-08 19:20:00,29.1,20.9,30.06,NNE,30,0.0,0.0,71,0.00,,---,0.01,VWS V13.01,2013-01-09 02:20:00,
2013-01-08 19:25:00,29.0,20.1,30.06,NNE,30,0.0,0.0,69,0.00,,---,0.01,VWS V13.01,2013-01-09 02:25:00,
2013-01-08 19:30:00,28.7,19.5,30.05,NNE,30,0.0,1.0,68,0.00,,---,0.01,VWS V13.01,2013-01-09 02:30:00,
2013-01-08 19:35:00,28.4,20.2,30.05,NNE,30,0.0,0.0,71,0.00,,---,0.01,VWS V13.01,2013-01-09 02:35:00,
2013-01-08 19:40:00,28.4,19.9,30.05,NNE,30,0.0,1.0,70,0.00,,---,0.01,VWS V13.01,2013-01-09 02:40:00,
2013-01-08 19:45:00,28.1,19.9,30.04,NNE,30,0.0,0.0,71,0.00,,---,0.01,VWS V13.01,2013-01-09 02:45:00,
2013-01-08 19:50:00,28.1,19.6,30.04,NNE,30,0.0,0.0,70,0.00,,---,0.01,VWS V13.01,2013-01-09 02:50:00,
2013-01-08 19:55:00,28.1,19.9,30.04,NNE,30,1.0,1.0,71,0.00,,---,0.01,VWS V13.01,2013-01-09 02:55:00,
2013-01-08 20:00:00,27.9,20.1,30.05,NNE,30,0.0,0.0,72,0.00,,---,0.01,VWS V13.01,2013-01-09 03:00:00,
2013-01-08 20:06:00,27.9,20.4,30.05,NNE,30,0.0,0.0,73,0.00,,---,0.01,VWS V13.01,2013-01-09 03:06:00,
2013-01-08 20:11:00,28.1,20.6,30.05,NNE,30,0.0,0.0,73,0.00,,---,0.01,VWS V13.01,2013-01-09 03:11:00,
2013-01-08 20:16:00,28.2,21.0,30.04,NNE,30,0.0,0.0,74,0.00,,---,0.01,VWS V13.01,2013-01-09 03:16:00,
2013-01-08 20:21:00,28.5,21.3,30.04,NNE,30,0.0,0.0,74,0.00,,---,0.01,VWS V13.01,2013-01-09 03:21:00,
2013-01-08 20:26:00,28.8,21.6,30.04,NNE,30,0.0,0.0,74,0.00,,---,0.01,VWS V13.01,2013-01-09 03:26:00,
2013-01-08 20:31:00,29.0,22.1,30.05,NNE,30,0.0,0.0,75,0.00,,---,0.01,VWS V13.01,2013-01-09 03:31:00,
2013-01-08 20:36:00,29.7,22.1,30.05,NNE,30,0.0,0.0,73,0.00,,---,0.01,VWS V13.01,2013-01-09 03:36:00,
2013-01-08 20:42:00,30.3,22.7,30.05,NNE,30,0.0,0.0,73,0.00,,---,0.01,VWS V13.01,2013-01-09 03:42:00,
2013-01-08 20:47:00,30.7,22.4,30.05,NNE,30,0.0,0.0,71,0.00,,---,0.01,VWS V13.01,2013-01-09 03:47:00,
2013-01-08 20:52:00,30.9,23.0,30.05,NNE,30,0.0,0.0,72,0.00,,---,0.01,VWS V13.01,2013-01-09 03:52:00,
2013-01-08 20:57:00,31.5,23.2,30.05,ESE,121,0.0,0.0,71,0.00,,---,0.01,VWS V13.01,2013-01-09 03:57:00,
2013-01-08 21:02:00,31.9,23.2,30.03,East,86,1.0,3.0,70,0.00,,---,0.01,VWS V13.01,2013-01-09 04:02:00,
2013-01-08 21:07:00,32.5,24.2,30.03,East,86,0.0,0.0,71,0.00,,---,0.01,VWS V13.01,2013-01-09 04:07:00,
2013-01-08 21:12:00,33.1,23.7,30.03,SW,231,0.0,2.0,68,0.00,,---,0.01,VWS V13.01,2013-01-09 04:12:00,
2013-01-08 21:17:00,33.7,24.3,30.02,SW,231,0.0,0.0,68,0.00,,---,0.01,VWS V13.01,2013-01-09 04:17:00,
2013-01-08 21:23:00,34.0,24.9,30.02,East,85,0.0,2.0,69,0.00,,---,0.01,VWS V13.01,2013-01-09 04:23:00,
2013-01-08 21:28:00,34.3,24.9,30.02,ESE,113,0.0,0.0,68,0.00,,---,0.01,VWS V13.01,2013-01-09 04:28:00,
2013-01-08 21:33:00,34.6,25.1,30.00,ESE,113,0.0,0.0,68,0.00,,---,0.01,VWS V13.01,2013-01-09 04:33:00,
2013-01-08 21:38:00,34.7,25.6,30.00,ESE,113,0.0,0.0,69,0.00,,---,0.01,VWS V13.01,2013-01-09 04:38:00,
2013-01-08 21:43:00,34.7,25.2,30.00,SW,232,0.0,2.0,68,0.00,,---,0.01,VWS V13.01,2013-01-09 04:43:00,
2013-01-08 21:48:00,34.7,25.6,30.00,SW,232,0.0,0.0,69,0.00,,---,0.01,VWS V13.01,2013-01-09 04:48:00,
2013-01-08 21:53:00,34.9,25.4,30.00,WSW,240,0.0,3.0,68,0.00,,---,0.01,VWS V13.01,2013-01-09 04:53:00,
2013-01-08 21:58:00,35.2,26.1,30.00,ENE,65,0.0,2.0,69,0.00,,---,0.01,VWS V13.01,2013-01-09 04:58:00,
2013-01-08 22:00:00,35.2,25.7,29.99,ENE,65,0.0,2.0,68,0.00,,---,0.01,VWS V13.01,2013-01-09 05:00:00,
2013-01-08 22:01:00,35.2,25.7,29.99,North,360,3.0,3.0,68,0.00,,---,0.01,VWS V13.01,2013-01-09 05:01:00,
2013-01-08 22:03:00,35.3,25.8,29.99,NE,49,3.0,4.0,68,0.00,,---,0.01,VWS V13.01,2013-01-09 05:03:00,
2013-01-08 22:05:00,35.3,25.5,29.99,ENE,73,0.0,4.0,67,0.00,,---,0.01,VWS V13.01,2013-01-09 05:05:00,
2013-01-08 22:10:00,35.8,25.6,29.99,West,277,0.0,5.0,66,0.00,,---,0.01,VWS V13.01,2013-01-09 05:10:00,
2013-01-08 22:15:00,36.5,25.5,29.98,ENE,63,0.0,4.0,64,0.00,,---,0.01,VWS V13.01,2013-01-09 05:15:00,
2013-01-08 22:20:00,36.9,25.9,29.98,East,81,2.0,3.0,64,0.00,,---,0.01,VWS V13.01,2013-01-09 05:20:00,
2013-01-08 22:25:00,37.0,26.0,29.98,East,80,0.0,5.0,64,0.00,,---,0.01,VWS V13.01,2013-01-09 05:25:00,
2013-01-08 22:30:00,37.2,25.8,29.98,NE,40,0.0,4.0,63,0.00,,---,0.01,VWS V13.01,2013-01-09 05:30:00,
2013-01-08 22:35:00,37.2,25.8,29.98,NE,55,0.0,5.0,63,0.00,,---,0.01,VWS V13.01,2013-01-09 05:35:00,
2013-01-08 22:40:00,37.3,25.9,29.98,NE,56,0.0,5.0,63,0.00,,---,0.01,VWS V13.01,2013-01-09 05:40:00,
2013-01-08 22:45:00,37.5,25.7,29.97,NNE,17,0.0,7.0,62,0.00,,---,0.01,VWS V13.01,2013-01-09 05:45:00,
2013-01-08 22:50:00,37.5,25.7,29.97,North,5,1.0,5.0,62,0.00,,---,0.01,VWS V13.01,2013-01-09 05:50:00,
2013-01-08 22:55:00,37.5,25.7,29.97,NE,48,2.0,2.0,62,0.00,,---,0.01,VWS V13.01,2013-01-09 05:55:00,
2013-01-08 23:00:00,37.5,25.7,29.97,North,360,0.0,0.0,62,0.00,,---,0.01,VWS V13.01,2013-01-09 06:00:00,
2013-01-08 23:05:00,37.2,25.4,29.97,NE,56,0.0,0.0,62,0.00,,---,0.01,VWS V13.01,2013-01-09 06:05:00,
2013-01-08 23:10:00,37.2,25.8,29.97,ENE,67,0.0,0.0,63,0.00,,---,0.01,VWS V13.01,2013-01-09 06:10:00,
2013-01-08 23:16:00,37.0,26.0,29.97,NE,38,0.0,0.0,64,0.00,,---,0.01,VWS V13.01,2013-01-09 06:16:00,
2013-01-08 23:21:00,36.8,25.8,29.97,ESE,106,0.0,1.0,64,0.00,,---,0.01,VWS V13.01,2013-01-09 06:21:00,
2013-01-08 23:26:00,36.6,26.0,29.97,ESE,119,0.0,0.0,65,0.00,,---,0.01,VWS V13.01,2013-01-09 06:26:00,
2013-01-08 23:31:00,36.6,25.6,29.98,NNE,19,0.0,0.0,64,0.00,,---,0.01,VWS V13.01,2013-01-09 06:31:00,
2013-01-08 23:36:00,36.5,26.2,29.98,NNE,19,0.0,3.0,66,0.00,,---,0.01,VWS V13.01,2013-01-09 06:36:00,
2013-01-08 23:41:00,36.3,26.4,29.98,ENE,70,0.0,0.0,67,0.00,,---,0.01,VWS V13.01,2013-01-09 06:41:00,
2013-01-08 23:46:00,36.2,26.0,29.99,ENE,59,0.0,0.0,66,0.00,,---,0.01,VWS V13.01,2013-01-09 06:46:00,
2013-01-08 23:51:00,36.2,26.3,29.99,ENE,59,0.0,0.0,67,0.00,,---,0.01,VWS V13.01,2013-01-09 06:51:00,
2013-01-08 23:56:00,36.2,25.6,29.99,NNE,31,1.0,3.0,65,0.00,,---,0.01,VWS V13.01,2013-01-09 06:56:00,